This is the latest recevied weather packets stored in our database for station/object KE8WAY. If no packets are shown the sender has not sent any weather packets the latest 10 day(s).
| Time | Temp. | Humidity | Pressure | Rain* | Wind** | Luminosity | Snow |
|---|---|---|---|---|---|---|---|
| 1777401912 | 17.78° C | 66% | 1011.1 hPa | 0 mm | - | 367 W/m² | - |
| 1777401611 | 17.78° C | 67% | 1011.3 hPa | 0 mm | - | 866 W/m² | - |
| 1777401309 | 18.33° C | 65% | 1011.1 hPa | 0 mm | - | 889 W/m² | - |
| 1777401004 | 18.33° C | 66% | 1011.2 hPa | 0 mm | - | 718 W/m² | - |
| 1777400699 | 17.78° C | 65% | 1011.2 hPa | 0 mm | - | 822 W/m² | - |
| 1777400397 | 17.78° C | 67% | 1011 hPa | 0 mm | - | 715 W/m² | - |
| 1777400091 | 18.33° C | 66% | 1011.1 hPa | 0 mm | - | 744 W/m² | - |
| 1777399784 | 18.33° C | 71% | 1010.9 hPa | 0 mm | - | 345 W/m² | - |
| 1777399481 | 18.33° C | 67% | 1010.9 hPa | 0 mm | - | 965 W/m² | - |
| 1777399178 | 17.78° C | 68% | 1010.9 hPa | 0 mm | - | 361 W/m² | - |
| 1777398875 | 18.89° C | 70% | 1010.9 hPa | 0 mm | - | 281 W/m² | - |
| 1777398572 | 18.33° C | 71% | 1010.6 hPa | 0 mm | - | 779 W/m² | - |
| 1777398268 | 18.33° C | 71% | 1010.7 hPa | 0 mm | - | 339 W/m² | - |
| 1777397966 | 17.78° C | 73% | 1010.6 hPa | 0 mm | - | 764 W/m² | - |
| 1777397662 | 17.78° C | 72% | 1011 hPa | 0 mm | - | 236 W/m² | - |
| 1777397358 | 18.33° C | 73% | 1010.4 hPa | 0 mm | - | 832 W/m² | - |
| 1777397055 | 17.78° C | 74% | 1010.6 hPa | 0 mm | - | 783 W/m² | - |
| 1777396751 | 17.78° C | 76% | 1010.6 hPa | 0 mm | - | 838 W/m² | - |
| 1777396448 | 17.78° C | 76% | 1010.7 hPa | 0 mm | - | 422 W/m² | - |
| 1777396145 | 17.78° C | 76% | 1010.5 hPa | 0 mm | - | 196 W/m² | - |
| 1777395841 | 17.78° C | 76% | 1010.6 hPa | 0 mm | - | 247 W/m² | - |
| 1777395536 | 17.78° C | 76% | 1010.6 hPa | 0 mm | - | 207 W/m² | - |
| 1777395233 | 17.78° C | 76% | 1010.6 hPa | 0 mm | - | 249 W/m² | - |
| 1777394931 | 17.78° C | 76% | 1010.3 hPa | 0 mm | - | 648 W/m² | - |
| 1777394626 | 17.78° C | 76% | 1010.5 hPa | 0 mm | - | 287 W/m² | - |
* Rain latest hour (hover to see other rain measurements)
** Current wind speed in m/s (hover to see current wind gust speed)